Sarasota, FL

6:29 AM EST on December 16, 2019 (GMT -0500)
Sarasota-bradenton

Weather History for KSRQ - September, 2019

Change the Weather History Date:

Sunday, September 1, 2019

  Actual Average Record
Temperature  
Mean Temperature 86 °F 82 °F  
Max Temperature 95 °F 90 °F 96 °F (2014)
Min Temperature 78 °F 75 °F 63 °F (1927)
Degree Days  
Heating Degree Days 0 0  
Month to date heating degree days 0 0  
Since 1 July heating degree days 0 0  
Cooling Degree Days 22 17  
Month to date cooling degree days 22 17  
Year to date cooling degree days 2880 2314  
Growing Degree Days 36 (Base 50)    
Moisture  
Dew Point 76 °F    
Average Humidity 79    
Maximum Humidity 91    
Minimum Humidity 51    
Precipitation  
Precipitation 0.13 in 0.34 in 2.14 in (1960)
Month to date precipitation 0.13 0.34  
Year to date precipitation 41.52 38.67  
Sea Level Pressure  
Sea Level Pressure 29.89 in    
Wind  
Wind Speed 6 mph ()    
Max Wind Speed 20 mph    
Max Gust Speed 25 mph    
Visibility 9.4 miles    
Events Rain , Thunderstorm    
T = Trace of Precipitation, MM = Missing Value Source: Averaged Metar Reports

Daily Weather History Graph

Daily Weather History Graph

Search for Another Location

Airport or City:

Astronomy

Sep. 01, 2019 Rise Set
Actual Time 7:09 AM EDT 7:50 PM EDT
Civil Twilight 6:45 AM EDT 8:14 PM EDT
Nautical Twilight 6:17 AM EDT 8:42 PM EDT
Astronomical Twilight 5:49 AM EDT 9:10 PM EDT
Moon 9:27 AM EDT (9/1) 9:51 PM EDT (9/1)
Length of Visible Light 13h 29m
Length of Day
12h 41m
Waxing Crescent, 8% of the Moon is Illuminated
Sep 1
Waxing Crescent
Sep 5
First Quarter
Sep 14
Full
Sep 21
Last Quarter
Sep 28
New

Hourly Weather History & Observations

Time (EDT) Temp. Heat Index Dew Point Humidity Pressure Visibility Wind Dir Wind Speed Gust Speed Precip Events Conditions
12:53 AM 80.1 °F 85.1 °F 75.0 °F 85% 29.94 in 10.0 mi NE 3.5 mph - N/A   Clear
1:53 AM 80.1 °F 85.1 °F 75.0 °F 85% 29.92 in 10.0 mi ENE 5.8 mph - N/A   Clear
2:53 AM 80.1 °F 85.1 °F 75.0 °F 85% 29.91 in 10.0 mi NE 3.5 mph - N/A   Clear
3:53 AM 79.0 °F - 75.0 °F 88% 29.91 in 10.0 mi ENE 6.9 mph - N/A   Clear
4:53 AM 79.0 °F - 75.0 °F 88% 29.91 in 10.0 mi NE 4.6 mph - N/A   Clear
5:53 AM 79.0 °F - 75.9 °F 90% 29.91 in 10.0 mi NE 6.9 mph - N/A   Clear
6:53 AM 79.0 °F - 75.9 °F 90% 29.91 in 10.0 mi NE 4.6 mph - N/A   Clear
7:53 AM 80.1 °F 85.4 °F 75.9 °F 87% 29.93 in 10.0 mi NE 6.9 mph - N/A   Clear
8:53 AM 82.9 °F 91.8 °F 77.0 °F 82% 29.93 in 10.0 mi ENE 6.9 mph - N/A   Clear
9:53 AM 87.1 °F 99.8 °F 78.1 °F 74% 29.94 in 10.0 mi ENE 9.2 mph - N/A   Clear
10:53 AM 90.0 °F 104.5 °F 78.1 °F 68% 29.95 in 10.0 mi NE 6.9 mph - N/A   Scattered Clouds
11:53 AM 91.0 °F 102.9 °F 75.9 °F 61% 29.94 in 10.0 mi East 10.4 mph - N/A   Scattered Clouds
12:53 PM 93.0 °F 105.3 °F 75.9 °F 57% 29.92 in 10.0 mi East 8.1 mph - N/A   Partly Cloudy
1:53 PM 93.9 °F 103.4 °F 73.0 °F 51% 29.90 in 10.0 mi Variable 5.8 mph - N/A   Partly Cloudy
2:53 PM 91.9 °F 100.7 °F 73.0 °F 54% 29.87 in 10.0 mi ENE 4.6 mph - N/A   Overcast
3:07 PM 93.9 °F 104.0 °F 73.9 °F 52% 29.86 in 10.0 mi Variable 3.5 mph - N/A Thunderstorm Mostly Cloudy
3:34 PM 90.0 °F 104.5 °F 78.1 °F 68% 29.86 in 10.0 mi South 12.7 mph - N/A Thunderstorm Mostly Cloudy
3:53 PM 90.0 °F 104.5 °F 78.1 °F 68% 29.85 in 10.0 mi South 9.2 mph - N/A Thunderstorm Mostly Cloudy
4:07 PM 86.0 °F 99.3 °F 79.0 °F 79% 29.85 in 9.0 mi SSW 13.8 mph - 0.01 in Rain , Thunderstorm Light Thunderstorms and Rain
4:33 PM 82.0 °F 90.2 °F 77.0 °F 85% 29.88 in 1.8 mi Calm Calm - 0.12 in Rain , Thunderstorm Heavy Thunderstorms and Rain
4:40 PM 82.9 °F 91.8 °F 77.0 °F 82% 29.86 in 4.0 mi SW 8.1 mph - 0.13 in Rain , Thunderstorm Light Thunderstorms and Rain
4:53 PM 82.9 °F 92.8 °F 78.1 °F 85% 29.85 in 4.0 mi West 8.1 mph - 0.13 in Rain , Thunderstorm Light Thunderstorms and Rain
5:12 PM 80.1 °F 85.4 °F 75.9 °F 87% 29.89 in 10.0 mi NNE 12.7 mph - 0.00 in Thunderstorm Mostly Cloudy
5:19 PM 80.1 °F 85.4 °F 75.9 °F 87% 29.89 in 10.0 mi North 15.0 mph - 0.00 in Rain , Thunderstorm Light Thunderstorms and Rain
5:34 PM 79.0 °F - 75.0 °F 88% 29.89 in 10.0 mi NNW 12.7 mph - 0.00 in Rain , Thunderstorm Light Rain
5:53 PM 78.1 °F - 73.9 °F 87% 29.88 in 10.0 mi NNW 9.2 mph - 0.00 in Thunderstorm Partly Cloudy
6:02 PM 78.1 °F - 73.9 °F 87% 29.88 in 10.0 mi North 6.9 mph - N/A   Partly Cloudy
6:53 PM 79.0 °F - 73.9 °F 84% 29.87 in 10.0 mi NNE 5.8 mph - N/A   Clear
7:53 PM 80.1 °F 85.1 °F 75.0 °F 85% 29.87 in 10.0 mi NNE 5.8 mph - N/A   Clear
8:53 PM 81.0 °F 87.3 °F 75.9 °F 85% 29.88 in 10.0 mi NE 3.5 mph - N/A   Clear
9:53 PM 81.0 °F 87.3 °F 75.9 °F 85% 29.89 in 10.0 mi NE 6.9 mph - N/A   Clear
10:53 PM 81.0 °F 87.3 °F 75.9 °F 85% 29.88 in 10.0 mi NE 5.8 mph - N/A   Clear
11:53 PM 80.1 °F 85.4 °F 75.9 °F 87% 29.88 in 10.0 mi NE 5.8 mph - N/A   Clear